Stations météo

réclame
Mon MeteoGroup
Messina, Italie (16420): Température de l'air & dewpoint: 11.12.2018 20:00:00 - 17.12.2018 20:00:00 (CET)Messina, Italie (16420): Vitesse du vent: 11.12.2018 20:00:00 - 17.12.2018 20:00:00 (CET)Messina, Italie (16420): Direction du vent: 11.12.2018 20:00:00 - 17.12.2018 20:00:00 (CET)Messina, Italie (16420): reduced air pressure: 11.12.2018 20:00:00 - 17.12.2018 20:00:00 (CET)Messina, Italie (16420): visibility: 11.12.2018 20:00:00 - 17.12.2018 20:00:00 (CET)Messina, Italie (16420): Ensoleillement: 11.12.2018 20:00:00 - 17.12.2018 20:00:00 (CET)
Date & Time tt [°C] td [°C] ff [km/h] ff [knt] dd ppp [hPa] vv [km] sd [min]
17.12.2018 20:00:00 12,4 8,7 21 11 NW 1014,3 7 -
17.12.2018 19:00:00 12,8 9,6 9 5 WNW 1013,5 12 -
17.12.2018 18:00:00 12,4 9,6 15 8 NW 1013,3 8 -
17.12.2018 17:00:00 13,0 9,8 11 6 NW 1013,1 12 0
17.12.2018 16:00:00 13,2 10,0 11 6 NW 1013,3 7 0
17.12.2018 15:00:00 13,0 9,6 16 9 NW 1012,6 12 0
17.12.2018 14:00:00 14,2 11,7 22 12 NW 1012,5 7 0
17.12.2018 13:00:00 18,2 13,9 9 5 NNW 1012,5 12 60
17.12.2018 12:00:00 17,2 13,7 8 4 NW 1013,4 20 30
17.12.2018 11:00:00 17,0 13,1 8 4 NNW 1014,8 20 24
17.12.2018 10:00:00 14,8 9,6 4 2 N 1015,1 20 0
17.12.2018 09:00:00 12,0 7,5 0 0 N 1015,1 20 0
17.12.2018 08:00:00 10,6 7,5 2 1 NNW 1015,0 20 0
17.12.2018 07:00:00 10,8 7,9 0 0 N 1015,8 10 0
17.12.2018 06:00:00 11,2 8,1 0 0 N 1016,2 12 -
17.12.2018 05:00:00 11,0 7,1 0 0 N 1016,6 12 -
17.12.2018 04:00:00 11,2 7,3 2 1 W 1016,7 12 -
17.12.2018 03:00:00 11,8 7,3 2 1 WSW 1017,6 12 -
17.12.2018 02:00:00 12,0 6,5 8 4 W 1018,1 12 -
17.12.2018 01:00:00 11,6 6,5 4 2 WSW 1018,8 12 -
17.12.2018 00:00:00 11,2 6,7 8 4 NW 1019,7 12 -
16.12.2018 23:00:00 11,2 6,9 5 3 NNW 1020,1 12 -
16.12.2018 22:00:00 11,0 6,9 4 2 NNE 1020,4 12 -
16.12.2018 21:00:00 11,6 6,7 5 3 N 1020,1 12 -
16.12.2018 20:00:00 12,2 5,8 4 2 NW 1019,8 15 -
16.12.2018 19:00:00 12,2 4,7 9 5 NNW 1020,0 15 -
16.12.2018 18:00:00 12,2 4,9 2 1 N 1019,8 15 -
16.12.2018 17:00:00 13,0 5,2 11 6 NW 1019,8 15 0
16.12.2018 16:00:00 13,6 5,0 9 5 NNE 1019,6 15 -
16.12.2018 15:00:00 14,0 5,4 13 7 NW 1019,5 15 48
16.12.2018 14:00:00 13,8 5,4 13 7 WNW 1019,5 15 24
16.12.2018 13:00:00 12,0 5,4 11 6 NNW 1019,5 12 0
16.12.2018 12:00:00 13,0 7,0 9 5 WNW 1019,6 10 6
16.12.2018 11:00:00 12,6 6,2 5 3 SW 1019,6 12 18
16.12.2018 10:00:00 12,4 7,1 5 3 N 1019,1 12 0
16.12.2018 09:00:00 12,2 7,7 11 6 NW 1018,2 12 0
16.12.2018 08:00:00 12,2 6,2 9 5 NNW 1017,5 12 0
16.12.2018 07:00:00 11,8 6,1 13 7 NNW 1016,8 12 -
16.12.2018 06:00:00 12,0 6,5 15 8 WNW 1016,6 14 -
16.12.2018 05:00:00 11,8 4,8 15 8 NW 1016,1 10 -
16.12.2018 04:00:00 12,0 5,2 18 10 NW 1015,9 12 -
16.12.2018 03:00:00 11,6 4,4 13 7 NNW 1014,9 12 -
16.12.2018 02:00:00 11,6 2,9 16 9 NW 1015,6 16 -
16.12.2018 01:00:00 11,6 1,8 21 11 NW 1015,3 14 -
16.12.2018 00:00:00 12,2 1,5 13 7 NNW 1015,1 14 -
15.12.2018 23:00:00 12,2 2,6 9 5 NNE 1015,1 14 -
15.12.2018 22:00:00 12,4 3,1 13 7 WNW 1014,8 14 -
15.12.2018 21:00:00 12,6 3,5 44 24 WNW 1013,8 12 -
15.12.2018 20:00:00 12,2 4,2 37 20 WNW 1013,6 12 -
15.12.2018 19:00:00 12,6 6,0 28 15 WNW 1012,7 12 -
15.12.2018 18:00:00 12,8 7,0 29 16 NW 1011,7 12 0
15.12.2018 17:00:00 12,8 7,0 15 8 NW 1011,5 12 0
15.12.2018 16:00:00 12,8 8,3 15 8 WNW 1011,1 10 0
15.12.2018 15:00:00 13,0 9,6 16 9 NW 1010,6 6 0
15.12.2018 14:00:00 13,8 10,4 16 9 NW 1010,4 12 0
15.12.2018 13:00:00 13,2 9,8 8 4 NNW 1010,5 8 0
15.12.2018 12:00:00 13,0 10,0 8 4 NNW 1010,5 10 0
15.12.2018 11:00:00 13,0 10,0 13 7 W 1010,4 5 0
15.12.2018 10:00:00 13,6 9,7 2 1 W 1009,8 8 6
15.12.2018 09:00:00 13,4 9,8 4 2 SSW 1009,4 20 36
15.12.2018 08:00:00 11,8 9,0 2 1 SW 1009,1 15 6
15.12.2018 07:00:00 11,2 8,4 2 1 SW 1008,6 15 -
15.12.2018 06:00:00 11,4 8,6 0 0 N 1008,3 12 -
15.12.2018 05:00:00 11,8 8,8 4 2 N 1008,3 12 -
15.12.2018 04:00:00 12,4 10,0 11 6 WSW 1008,3 12 -
15.12.2018 03:00:00 12,6 10,5 4 2 N 1009,0 9 -
15.12.2018 02:00:00 14,6 10,6 15 8 SW 1008,7 9 -
15.12.2018 01:00:00 15,8 12,4 11 6 WSW 1008,0 4,0 -
15.12.2018 00:00:00 16,0 12,9 8 4 WSW 1007,9 12 -
14.12.2018 23:00:00 16,0 12,9 9 5 SW 1008,0 12 -
14.12.2018 22:00:00 16,0 13,5 9 5 SW 1007,5 12 -
14.12.2018 21:00:00 16,4 13,5 8 4 SW 1008,4 10 -
14.12.2018 20:00:00 17,0 13,5 9 5 S 1008,4 10 -
14.12.2018 19:00:00 17,0 13,1 8 4 S 1008,3 12 -
14.12.2018 18:00:00 17,0 12,5 13 7 S 1008,4 12 -
14.12.2018 17:00:00 17,0 13,0 11 6 SSW 1008,2 10 0
14.12.2018 16:00:00 17,0 13,5 21 11 SSW 1008,2 10 0
14.12.2018 15:00:00 17,2 13,1 22 12 SSW 1008,2 10 0
14.12.2018 14:00:00 18,0 13,1 21 11 SW 1008,5 14 36
14.12.2018 13:00:00 17,6 13,3 22 12 SW 1009,1 14 60
14.12.2018 12:00:00 16,4 12,8 18 10 SSW 1010,2 10 30
14.12.2018 11:00:00 16,6 12,5 22 12 SSW 1010,4 10 30
14.12.2018 10:00:00 16,0 12,2 22 12 SSW 1010,6 10 60
14.12.2018 09:00:00 15,8 12,5 18 10 SSW 1010,5 10 36
14.12.2018 08:00:00 15,2 12,2 21 11 SSW 1010,4 14 0
14.12.2018 07:00:00 15,2 12,0 18 10 SSW 1010,4 14 0
14.12.2018 06:00:00 15,0 12,0 18 10 SSW 1010,4 12 -
14.12.2018 05:00:00 15,0 12,1 16 9 SSW 1010,7 12 -
14.12.2018 04:00:00 14,8 11,4 16 9 SW 1011,3 10 -
14.12.2018 03:00:00 14,8 11,6 13 7 WSW 1011,6 12 -
14.12.2018 02:00:00 15,0 12,0 13 7 SSW 1011,9 12 -
14.12.2018 01:00:00 15,0 12,0 9 5 SSW 1012,1 12 -
14.12.2018 00:00:00 15,0 11,8 9 5 SSW 1012,3 12 -
13.12.2018 23:00:00 15,0 11,0 15 8 WSW 1012,3 12 -
13.12.2018 22:00:00 14,8 9,6 11 6 WSW 1012,3 12 -
13.12.2018 21:00:00 14,0 10,4 0 0 N 1012,4 12 -
13.12.2018 20:00:00 14,0 10,2 4 2 N 1012,3 12 -
13.12.2018 19:00:00 14,2 10,2 2 1 N 1012,2 12 -
13.12.2018 18:00:00 14,6 11,0 5 3 W 1012,3 15 -
13.12.2018 17:00:00 15,0 11,3 5 3 W 1012,2 20 6
13.12.2018 16:00:00 17,8 9,9 4 2 N 1012,1 20 60
13.12.2018 15:00:00 18,0 10,1 9 5 ENE 1012,3 20 60
13.12.2018 14:00:00 17,4 10,6 5 3 NE 1012,6 20 60
13.12.2018 13:00:00 16,0 10,5 11 6 E 1013,4 20 48
13.12.2018 12:00:00 14,0 10,2 4 2 N 1014,2 12 0
13.12.2018 11:00:00 14,8 10,7 8 4 NNW 1014,3 9 24
13.12.2018 10:00:00 15,0 11,2 8 4 SW 1014,4 12 42
13.12.2018 09:00:00 14,4 10,6 11 6 WSW 1014,4 16 30
13.12.2018 08:00:00 13,0 9,6 11 6 WSW 1014,5 12 0
13.12.2018 07:00:00 13,0 9,8 8 4 WSW 1014,5 12 0
13.12.2018 06:00:00 12,6 9,6 8 4 WSW 1014,5 12 -
13.12.2018 05:00:00 12,4 9,4 9 5 WSW 1014,8 12 -
13.12.2018 04:00:00 12,4 9,6 9 5 WSW 1015,5 10 -
13.12.2018 03:00:00 12,2 9,2 8 4 WSW 1015,7 12 -
13.12.2018 02:00:00 12,0 9,0 9 5 WSW 1015,7 12 -
13.12.2018 01:00:00 12,0 9,4 11 6 WSW 1015,7 12 -
13.12.2018 00:00:00 12,4 9,6 4 2 SW 1017,0 12 -
12.12.2018 23:00:00 12,2 9,2 9 5 WSW 1017,1 12 -
12.12.2018 22:00:00 12,6 9,2 9 5 WSW 1017,3 10 -
12.12.2018 21:00:00 12,0 9,0 8 4 WSW 1018,6 10 -
12.12.2018 20:00:00 12,0 9,4 11 6 WSW 1017,6 9 -
12.12.2018 19:00:00 12,0 8,8 11 6 WSW 1017,6 9 -
12.12.2018 18:00:00 11,4 9,0 8 4 WSW 1017,6 9 -
12.12.2018 17:00:00 11,4 9,1 9 5 WSW 1017,8 9 0
12.12.2018 16:00:00 12,6 9,6 11 6 SW 1017,8 9 0
12.12.2018 15:00:00 13,0 9,6 9 5 SW 1017,8 9 0
12.12.2018 14:00:00 14,0 8,0 11 6 SSW 1017,8 20 0
12.12.2018 13:00:00 13,2 9,8 9 5 SW 1018,6 20 0
12.12.2018 12:00:00 13,6 8,4 9 5 SW 1018,9 20 0
12.12.2018 11:00:00 13,2 7,9 9 5 SSW 1019,3 20 0
12.12.2018 10:00:00 12,8 6,2 9 5 SW 1018,9 20 0
12.12.2018 09:00:00 12,0 6,9 5 3 WSW 1018,8 20 0
12.12.2018 08:00:00 11,2 7,3 4 2 W 1018,5 20 0
12.12.2018 07:00:00 11,2 7,7 0 0 N 1018,5 16 0
12.12.2018 06:00:00 10,8 7,3 4 2 NW 1018,6 12 -
12.12.2018 05:00:00 10,8 7,1 0 0 N 1018,5 10 -
12.12.2018 04:00:00 10,4 5,8 4 2 WNW 1018,6 4,0 -
12.12.2018 03:00:00 10,6 3,9 15 8 NW 1018,6 12 -
12.12.2018 02:00:00 10,4 5,0 5 3 N 1018,6 12 -
12.12.2018 01:00:00 8,8 6,3 0 0 N 1018,6 12 -
12.12.2018 00:00:00 9,0 5,7 2 1 NNE 1018,6 12 -
11.12.2018 23:00:00 9,0 5,5 0 0 N 1018,6 12 -
11.12.2018 22:00:00 9,8 6,0 0 0 N 1018,1 12 -
11.12.2018 21:00:00 10,8 4,9 2 1 NNE 1017,8 16 -
11.12.2018 20:00:00 11,2 2,2 4 2 WNW 1017,6 20 -

tt = Température de l'air
td = dewpoint
ff = Vitesse du vent
dd = Direction du vent
ppp = reduced air pressure
vv = visibility
sd = Ensoleillement

stations d'obs. à proximité